Simultaneous Nadir Overpasses (SNOs) Predictions

Prediction of SNOs between GOES-15 and LANDSAT-8 Satellite Orbit:

Table of predicted SNOs for the next 14.0 days since TLE Epoch: 5/25/2024
Index Date Time (GOES-15) GOES-15 Lat,Lon LANDSAT-8 Lat,Lon Distance(km) Time Diff (sec)
1 05/25/2024 17:58:42 0.17, 61.68 0.38, 62.77 123.45 80
2 05/26/2024 06:22:38 -0.16, 61.66 0.68, 57.61 460.36 80
3 05/27/2024 17:46:31 0.18, 61.65 1.04, 65.72 462.33 80
4 05/28/2024 06:10:26 -0.17, 61.63 0.08, 60.57 121.57 80
5 05/30/2024 05:55:35 -0.18, 61.60 -0.61, 63.51 217.23 80
6 05/30/2024 18:19:38 0.16, 61.61 -0.56, 58.33 373.62 80
7 06/01/2024 18:07:26 0.16, 61.58 0.10, 61.28 34.58 80
8 06/03/2024 17:52:33 0.17, 61.56 0.73, 64.23 304.20 80
9 06/04/2024 06:16:28 -0.15, 61.54 0.37, 59.08 279.36 80
10 06/06/2024 06:01:35 -0.16, 61.52 -0.28, 62.03 58.72 80
